Notices

What's New in latest Release from April 7th, 2021:

- Updated Glossary, including Speed of Maximum Gust, and Total Hourly Precipitation

- Updated national and regional climate services offices contacts and prices information

- Addition of station inventory lists for 1981-2010, 1971-2000, and 1961-1990 Normals.

If you haven't already, please take our survey and provide feedback about our website: https://eccc.sondage-survey.ca/f/LanguageSelection.aspx?s=442ca660-fcf1-47c0-95a9-59707d6fd709

Hourly Data Report for January 16, 2004

SHERBROOKE A
QUEBEC

45°26'00.000" N
71°41'00.000" W
241.40 m
7028124
71610
YSC

Download Data

Hourly Data (January 2004)
Hourly Data Report for January 16, 2004
TIME
LST
Temp Definition
°C
Dew Point Definition
°C
Rel Hum Definition
%
Precip. Amount Definition
mm

Wind Dir Definition
10's deg

Wind Spd Definition
km/h
Visibility Definition
km
Stn Press Definition
kPa
Hmdx Definition


Wind Chill Definition


Weather Definition


00:00 -27.4 -33.8 54   27 28 3.7 97.11   -42  
01:00 -27.2 -33.5 55   27 32 3.4 97.04   -42 Snow
02:00 -26.8 -33.2 55   25 28 4.8 97.04   -41 Snow
03:00 -26.3 -32.3 57   26 26 2.9 96.99   -40 Snow
04:00 -25.7 -31.3 59   27 30 2.3 96.97   -40 Snow
05:00 -25.8 -31.9 57   25 24 2.9 96.97   -39 Snow
06:00 -25.6 -31.0 61   25 22 1.0 96.98   -38 Snow
07:00 -24.9 -30.4 60   26 26 1.3 97.05   -38 Snow
08:00 -24.0 -29.4 61   27 30 1.2 97.10   -38 Snow,Blowing Snow
09:00 -23.0 -28.4 61   27 22 2.4 97.16   -35 Snow
10:00 -21.8 -27.4 60   27 32 2.4 97.23   -35 Snow,Blowing Snow
11:00 -20.7 -26.3 61   27 28 1.6 97.32   -33 Snow,Blowing Snow
12:00 -19.5 -24.9 62   28 28 2.4 97.30   -32 Snow,Blowing Snow
13:00 -18.7 -24.1 62   27 26 2.4 97.34   -30 Snow,Blowing Snow
14:00 -18.3 -23.7 63   27 33 2.4 97.41   -31 Snow,Blowing Snow
15:00 -18.0 -23.5 62   27 22 3.2 97.54   -28 Snow,Blowing Snow
16:00 -17.7 -23.0 63   27 22 4.8 97.61   -28 Snow
17:00 -17.4 -22.6 64   27 19 3.2 97.70   -27 Snow
18:00 -16.9 -22.3 63   26 22 8.0 97.75   -27  
19:00 -16.4 -21.2 66   25 26 3.2 97.76   -27 Snow
20:00 -16.1 -20.4 69   26 24 1.4 97.80   -26 Snow
21:00 -15.8 -20.0 70   25 26 1.8 97.79   -26 Snow
22:00 -15.6 -20.2 68   27 20 1.9 97.86   -25 Snow
23:00 -15.5 -20.0 68   26 26 2.1 97.92   -26  

Notes on Data Quality.

Legend

  • E = Estimated
  • M = Missing
  • NA = Not Available*
  • [empty] = Indicates an unobserved value
Date modified: